TimeCDT,TemperatureF,Dew PointF,Humidity,Sea Level PressureIn,VisibilityMPH,Wind Direction,Wind SpeedMPH,Gust SpeedMPH,PrecipitationIn,Events,Conditions,WindDirDegrees,DateUTC
12:15 AM,75.2,71.6,89,30.03,7.0,Calm,Calm,-,N/A,,Clear,0,2013-09-10 05:15:00
12:35 AM,77.0,69.8,78,30.03,10.0,SE,3.5,-,N/A,,Clear,140,2013-09-10 05:35:00
12:55 AM,75.2,69.8,83,30.03,10.0,Calm,Calm,-,N/A,,Clear,0,2013-09-10 05:55:00
1:15 AM,75.2,69.8,83,30.04,10.0,Calm,Calm,-,N/A,,Clear,0,2013-09-10 06:15:00
1:35 AM,77.0,69.8,78,30.04,10.0,South,3.5,-,N/A,,Clear,170,2013-09-10 06:35:00
1:55 AM,73.4,69.8,88,30.04,10.0,Calm,Calm,-,N/A,,Clear,0,2013-09-10 06:55:00
2:15 AM,73.4,69.8,88,30.04,10.0,Calm,Calm,-,N/A,,Clear,0,2013-09-10 07:15:00
2:35 AM,71.6,68.0,88,30.05,10.0,SE,3.5,-,N/A,,Clear,130,2013-09-10 07:35:00
2:55 AM,73.4,69.8,88,30.05,10.0,Calm,Calm,-,N/A,,Clear,0,2013-09-10 07:55:00
3:15 AM,73.4,69.8,88,30.05,10.0,Calm,Calm,-,N/A,,Clear,0,2013-09-10 08:15:00
3:35 AM,71.6,68.0,88,30.05,10.0,Calm,Calm,-,N/A,,Clear,0,2013-09-10 08:35:00
3:55 AM,71.6,68.0,88,30.06,10.0,Calm,Calm,-,N/A,,Clear,0,2013-09-10 08:55:00
4:15 AM,71.6,68.0,88,30.06,10.0,Calm,Calm,-,N/A,,Clear,0,2013-09-10 09:15:00
4:35 AM,71.6,69.8,94,30.07,7.0,Calm,Calm,-,N/A,,Clear,0,2013-09-10 09:35:00
4:55 AM,71.6,68.0,88,30.08,7.0,Calm,Calm,-,N/A,,Clear,0,2013-09-10 09:55:00
5:15 AM,71.6,69.8,94,30.08,7.0,Calm,Calm,-,N/A,,Clear,0,2013-09-10 10:15:00
5:35 AM,71.6,69.8,94,30.08,7.0,Calm,Calm,-,N/A,,Clear,0,2013-09-10 10:35:00
5:55 AM,71.6,69.8,94,30.08,7.0,Calm,Calm,-,N/A,,Clear,0,2013-09-10 10:55:00
6:15 AM,71.6,69.8,94,30.09,7.0,Calm,Calm,-,N/A,,Clear,0,2013-09-10 11:15:00
6:35 AM,71.6,69.8,94,30.09,7.0,Calm,Calm,-,N/A,,Clear,0,2013-09-10 11:35:00
6:55 AM,71.6,68.0,88,30.10,5.0,Calm,Calm,-,N/A,,Clear,0,2013-09-10 11:55:00
7:15 AM,69.8,68.0,94,30.11,4.0,SSE,3.5,-,N/A,,Clear,150,2013-09-10 12:15:00
7:35 AM,71.6,69.8,94,30.11,7.0,Calm,Calm,-,N/A,,Clear,0,2013-09-10 12:35:00
7:55 AM,73.4,69.8,88,30.11,7.0,Calm,Calm,-,N/A,,Clear,0,2013-09-10 12:55:00
8:15 AM,77.0,71.6,83,30.11,7.0,Calm,Calm,-,N/A,,Clear,0,2013-09-10 13:15:00
8:35 AM,78.8,71.6,78,30.12,7.0,Calm,Calm,-,N/A,,Clear,0,2013-09-10 13:35:00
8:55 AM,80.6,69.8,70,30.13,10.0,WSW,3.5,-,N/A,,Clear,240,2013-09-10 13:55:00
9:15 AM,82.4,69.8,66,30.13,10.0,WSW,5.8,-,N/A,,Clear,240,2013-09-10 14:15:00
9:35 AM,86.0,68.0,55,30.13,10.0,SSW,4.6,-,N/A,,Clear,200,2013-09-10 14:35:00
9:55 AM,86.0,68.0,55,30.13,10.0,SW,3.5,-,N/A,,Clear,220,2013-09-10 14:55:00
10:15 AM,87.8,68.0,52,30.13,10.0,West,3.5,-,N/A,,Clear,260,2013-09-10 15:15:00
10:35 AM,89.6,64.4,43,30.14,10.0,Calm,Calm,-,N/A,,Clear,0,2013-09-10 15:35:00
10:55 AM,89.6,64.4,43,30.13,10.0,WNW,3.5,-,N/A,,Clear,290,2013-09-10 15:55:00
11:15 AM,91.4,66.2,43,30.13,10.0,Calm,Calm,-,N/A,,Clear,0,2013-09-10 16:15:00
11:35 AM,91.4,69.8,49,30.13,10.0,ESE,3.5,-,N/A,,Clear,120,2013-09-10 16:35:00
11:55 AM,91.4,68.0,46,30.13,10.0,ESE,3.5,-,N/A,,Clear,120,2013-09-10 16:55:00
12:15 PM,93.2,62.6,36,30.13,10.0,NE,4.6,-,N/A,,Clear,50,2013-09-10 17:15:00
12:35 PM,95.0,62.6,34,30.12,10.0,East,3.5,-,N/A,,Clear,90,2013-09-10 17:35:00
12:55 PM,95.0,64.4,36,30.12,10.0,NE,4.6,-,N/A,,Clear,50,2013-09-10 17:55:00
1:15 PM,95.0,64.4,36,30.11,10.0,Calm,Calm,-,N/A,,Clear,0,2013-09-10 18:15:00
1:35 PM,96.8,64.4,34,30.10,10.0,NE,4.6,-,N/A,,Clear,50,2013-09-10 18:35:00
1:55 PM,95.0,62.6,34,30.09,10.0,NNE,3.5,-,N/A,,Clear,20,2013-09-10 18:55:00
2:15 PM,95.0,62.6,34,30.08,10.0,Calm,Calm,-,N/A,,Clear,0,2013-09-10 19:15:00
2:35 PM,96.8,62.6,32,30.08,10.0,South,3.5,-,N/A,,Clear,170,2013-09-10 19:35:00
2:55 PM,96.8,62.6,32,30.07,10.0,ESE,3.5,-,N/A,,Clear,120,2013-09-10 19:55:00
3:15 PM,95.0,62.6,34,30.06,10.0,Calm,Calm,-,N/A,,Clear,0,2013-09-10 20:15:00
3:35 PM,95.0,62.6,34,30.06,10.0,Calm,Calm,-,N/A,,Clear,0,2013-09-10 20:35:00
3:55 PM,95.0,62.6,34,30.06,10.0,Calm,Calm,-,N/A,,Clear,0,2013-09-10 20:55:00
4:15 PM,95.0,64.4,36,30.05,10.0,East,9.2,-,N/A,,Clear,100,2013-09-10 21:15:00
4:35 PM,91.4,68.0,46,30.06,10.0,East,9.2,-,N/A,,Clear,80,2013-09-10 21:35:00
4:55 PM,89.6,68.0,49,30.06,10.0,East,8.1,-,N/A,,Clear,90,2013-09-10 21:55:00
5:15 PM,91.4,68.0,46,30.05,10.0,NE,5.8,-,N/A,,Clear,50,2013-09-10 22:15:00
5:35 PM,89.6,68.0,49,30.05,10.0,East,3.5,-,N/A,,Clear,90,2013-09-10 22:35:00
5:55 PM,87.8,69.8,55,30.06,10.0,SE,4.6,-,N/A,,Clear,130,2013-09-10 22:55:00
6:15 PM,86.0,71.6,62,30.06,10.0,ESE,5.8,-,N/A,Thunderstorm,Thunderstorm,110,2013-09-10 23:15:00
6:35 PM,86.0,69.8,58,30.08,10.0,East,6.9,-,N/A,Thunderstorm,Clear,100,2013-09-10 23:35:00
6:55 PM,86.0,69.8,58,30.09,10.0,ESE,18.4,24.2,N/A,,Scattered Clouds,110,2013-09-10 23:55:00
7:15 PM,80.6,69.8,70,30.10,10.0,East,13.8,20.7,N/A,,Clear,100,2013-09-11 00:15:00
7:35 PM,80.6,68.0,65,30.10,10.0,ESE,11.5,17.3,N/A,,Clear,110,2013-09-11 00:35:00
7:55 PM,78.8,68.0,69,30.11,10.0,SSE,9.2,-,N/A,,Clear,150,2013-09-11 00:55:00
8:15 PM,77.0,69.8,78,30.11,10.0,SE,8.1,-,N/A,,Clear,130,2013-09-11 01:15:00
8:35 PM,77.0,69.8,78,30.11,10.0,SE,3.5,-,N/A,,Clear,130,2013-09-11 01:35:00
8:55 PM,77.0,69.8,78,30.12,10.0,Calm,Calm,-,N/A,,Clear,0,2013-09-11 01:55:00
9:15 PM,77.0,69.8,78,30.12,10.0,NE,4.6,-,N/A,,Clear,50,2013-09-11 02:15:00
9:35 PM,77.0,69.8,78,30.11,10.0,Calm,Calm,-,N/A,,Clear,0,2013-09-11 02:35:00
9:55 PM,77.0,69.8,78,30.13,10.0,East,3.5,-,N/A,,Clear,100,2013-09-11 02:55:00
10:15 PM,77.0,69.8,78,30.12,10.0,Calm,Calm,-,N/A,,Clear,0,2013-09-11 03:15:00
10:35 PM,75.2,69.8,83,30.13,10.0,Calm,Calm,-,N/A,,Clear,0,2013-09-11 03:35:00
10:55 PM,73.4,69.8,88,30.12,10.0,SSE,4.6,-,N/A,,Clear,150,2013-09-11 03:55:00
11:15 PM,73.4,69.8,88,30.13,10.0,Calm,Calm,-,N/A,,Clear,0,2013-09-11 04:15:00
11:35 PM,75.2,69.8,83,30.12,10.0,Calm,Calm,-,N/A,,Clear,0,2013-09-11 04:35:00
11:55 PM,75.2,69.8,83,30.12,10.0,Calm,Calm,-,N/A,,Clear,0,2013-09-11 04:55:00